Location: Newark
(1.4667°N, 173.0333°E)
Time: 22:14:25
(UTC+00:00)

Hubble Space Telescope - Pass Details

Date: 23 March 2019
Orbit: 537 x 540 km, 28.5° (Epoch: 21 April)

Event Time Altitude Azimuth Distance (km) Brightness Sun altitude
Exits shadow 17:50:24 15° 255° (WSW) 1,498 2.4 -11.0°
Maximum altitude 17:52:49 24° 210° (SSW) 1,126 2.1 -10.4°
Drops below altitude 10° 17:56:11 10° 154° (SSE) 1,782 3.8 -9.5°
Sets 17:58:46 0° 140° (SE) 2,672 4.9 -8.9°
